"Pseudo-MPEC" for X57357

Created 2018 Jun 18 9:18:56 UT using Find_Orb

Click here for an explanation of pseudo-MPECs

 
 Astrometry: 
     X57357   C2018 06 12a'AstrometryMpMHiiM=K6`4g]nE$_(`;Zh+x^WVmr]thdCW-JuYD29
     X57357   C2018 06 12a5m(La(Q07DZGCrXyredacted;eP6:]usee-aJ@:3+fN3qOw/EvCD29
     X57357   C2018 06 12F?;$rZ.btL1!#sDu@1Z``GXiyAhuhnYFfmT(BZDS[!;EV[WNEOCPD29

Station data:
(D29) Purple Mountain Observatory, XuYi Station  (N32.734366 E118.463900)
   China.  Observers H. B. Zhao, B. Li, G. Zhaori, R. Q. Hong, L. F. Hu.
   Measurers H. B. Zhao, B. Li. H. Lu, G. Zhaori. 1.04-m f/1.8 Schmidt + CCD.

Orbital elements:  X57357
   Perihelion 2018 May 19.091713 +/- 55.3 TT =  2:12:04 (JD 2458257.591713)
Epoch 2018 Jun 13.0 TT = JDT 2458282.5   Earth MOID: 0.5493   Ma: 0.0753
M   7.31235 +/- 26                  (J2000 ecliptic)          AutoNEOCP
n   0.29357136 +/- 0.306            Peri.  288.88066 +/- 80
a   2.24212723 +/- 1.56             Node   307.56777 +/- 57
e   0.3054712 +/- 0.254             Incl.    3.09413 +/- 3.7
P   3.36                   H 18.7   G  0.15   U 11.9  SR
q 1.55722184 +/- 0.656    Q 2.92703262 +/- 85
From 3 observations 2018 June 12 (43.3 min); mean residual 0".17
Residuals in arcseconds: 
180612 D29  .09+  .14-    180612 D29  .19-  .28+    180612 D29  .09+  .14-    

Ephemerides (geocentric):
Date (UTC) HH   RA              Dec         delta   r     elong  mag " sig PA
---- -- -- --  -------------   -----------  ------ ------ -----  --- ---- ---
2018 06 18 09  15 13 42.643   -24 27 19.92  .62894 1.5741 145.2 19.8 2824 170
2018 06 18 10  15 13 43.753   -24 27 10.25  .62914 1.5742 145.2 19.8 2859 170
2018 06 18 11  15 13 44.867   -24 27 00.59  .62934 1.5742 145.2 19.8 2896 170
2018 06 18 12  15 13 45.986   -24 26 50.95  .62954 1.5743 145.1 19.8 2933 170
2018 06 18 13  15 13 47.109   -24 26 41.32  .62974 1.5743 145.1 19.8 2970 170
2018 06 18 14  15 13 48.236   -24 26 31.71  .62994 1.5743 145.1 19.8 3009 170
2018 06 18 15  15 13 49.368   -24 26 22.10  .63014 1.5744 145.0 19.8 3048 170
2018 06 18 16  15 13 50.504   -24 26 12.51  .63034 1.5744 145.0 19.8 3087 170
2018 06 18 17  15 13 51.644   -24 26 02.94  .63054 1.5745 145.0 19.8 3128 170
2018 06 18 18  15 13 52.788   -24 25 53.38  .63074 1.5745 144.9 19.8 3169 170
2018 06 18 19  15 13 53.937   -24 25 43.83  .63094 1.5746 144.9 19.8 3211 170
2018 06 18 20  15 13 55.090   -24 25 34.29  .63114 1.5746 144.9 19.8 3254 169
2018 06 18 21  15 13 56.247   -24 25 24.77  .63135 1.5747 144.8 19.8 3297 169
2018 06 18 22  15 13 57.408   -24 25 15.27  .63155 1.5747 144.8 19.8 3342 169
2018 06 18 23  15 13 58.574   -24 25 05.77  .63175 1.5748 144.7 19.8 3387 169
2018 06 19 00  15 13 59.744   -24 24 56.29  .63195 1.5748 144.7 19.8 3434 169
2018 06 19 01  15 14 00.918   -24 24 46.82  .63215 1.5749 144.7 19.8 3481 169
2018 06 19 02  15 14 02.096   -24 24 37.37  .63236 1.5749 144.6 19.8 3529 169
2018 06 19 03  15 14 03.279   -24 24 27.93  .63256 1.5750 144.6 19.8 3579 169
2018 06 19 04  15 14 04.466   -24 24 18.51  .63276 1.5750 144.6 19.8 3629 169
2018 06 19 05  15 14 05.657   -24 24 09.09  .63297 1.5750 144.5 19.8 3681 169
2018 06 19 06  15 14 06.853   -24 23 59.70  .63317 1.5751 144.5 19.8 3734 169
2018 06 19 07  15 14 08.052   -24 23 50.31  .63337 1.5751 144.5 19.8 3788 168
2018 06 19 08  15 14 09.256   -24 23 40.94  .63358 1.5752 144.4 19.8 3843 168
2018 06 19 09  15 14 10.465   -24 23 31.58  .63378 1.5752 144.4 19.8 3900 168
2018 06 19 10  15 14 11.677   -24 23 22.24  .63399 1.5753 144.4 19.8 3958 168
2018 06 19 11  15 14 12.894   -24 23 12.91  .63419 1.5753 144.3 19.8 4018 168
2018 06 19 12  15 14 14.115   -24 23 03.60  .63440 1.5754 144.3 19.8 4079 168
2018 06 19 13  15 14 15.340   -24 22 54.29  .63460 1.5754 144.3 19.8 4142 168
2018 06 19 14  15 14 16.569   -24 22 45.01  .63481 1.5755 144.2 19.8 4207 168
2018 06 19 15  15 14 17.803   -24 22 35.73  .63501 1.5755 144.2 19.8 4274 168
2018 06 19 16  15 14 19.041   -24 22 26.47  .63522 1.5756 144.2 19.8 4342 168
2018 06 19 17  15 14 20.283   -24 22 17.23  .63542 1.5756 144.1 19.8 4412 167
2018 06 19 18  15 14 21.530   -24 22 07.99  .63563 1.5757 144.1 19.8 4485 167
2018 06 19 19  15 14 22.780   -24 21 58.78  .63584 1.5757 144.1 19.8 4559 167
2018 06 19 20  15 14 24.035   -24 21 49.57  .63604 1.5758 144.0 19.8 4636 167
2018 06 19 21  15 14 25.294   -24 21 40.38  .63625 1.5758 144.0 19.8 4716 167
2018 06 19 22  15 14 26.558   -24 21 31.20  .63646 1.5759 143.9 19.8 4798 167
2018 06 19 23  15 14 27.825   -24 21 22.04  .63666 1.5759 143.9 19.8 4883 167
2018 06 20 00  15 14 29.097   -24 21 12.89  .63687 1.5760 143.9 19.8 4971 167
2018 06 20 01  15 14 30.373   -24 21 03.76  .63708 1.5760 143.8 19.8 5062 166
2018 06 20 02  15 14 31.653   -24 20 54.64  .63729 1.5761 143.8 19.8 5156 166
2018 06 20 03  15 14 32.938   -24 20 45.53  .63749 1.5761 143.8 19.8 5253 166
2018 06 20 04  15 14 34.226   -24 20 36.44  .63770 1.5762 143.7 19.8 5355 166
2018 06 20 05  15 14 35.519   -24 20 27.36  .63791 1.5762 143.7 19.8 5460 166
2018 06 20 06  15 14 36.816   -24 20 18.29  .63812 1.5762 143.7 19.8 5569 166
2018 06 20 07  15 14 38.118   -24 20 09.24  .63833 1.5763 143.6 19.8 5683 166
2018 06 20 08  15 14 39.423   -24 20 00.21  .63854 1.5763 143.6 19.8 5802 165